Location: Dead Woman Crossing
(43.5369°N, 106.3228°W)
Time: 15:59:03
(UTC+00:00)

O/OREOS (USA 219) - Pass Details

Date: 03 July 2022
Orbit: 621 x 646 km, 72.0° (Epoch: 22 May)

Event Time Altitude Azimuth Distance (km) Brightness Sun altitude
Rises 06:18:40 0° 344° (NNW) 2,964 ? -22.5°
Reaches altitude 10° 06:21:11 10° 355° (N) 2,052 ? -22.6°
Maximum altitude 06:25:17 31° 58° (ENE) 1,147 ? -22.7°
Enters shadow 06:26:46 25° 92° (E) 1,302 ? -22.8°
